Weather History for Burlington, CO

Change the Weather History Date:

Sunday, September 15, 2013

  Actual Average Record
Temperature  
Mean Temperature 60 °F 64 °F  
Max Temperature 64 °F 79 °F 97 °F (1955)
Min Temperature 55 °F 49 °F 32 °F (1993)
Degree Days  
Heating Degree Days 6    
Growing Degree Days 9 (Base 50)    
Moisture  
Dew Point 57 °F    
Average Humidity 93    
Maximum Humidity 100    
Minimum Humidity 84    
Precipitation  
Precipitation 0.01 in 0.04 in 1.00 in (1967)
Month to date precipitation 5.26 0.64  
Year to date precipitation 15.71 14.79  
Sea Level Pressure  
Sea Level Pressure 30.13 in    
Wind  
Wind Speed 11 mph (NNE)    
Max Wind Speed 18 mph    
Max Gust Speed 21 mph    
Visibility 6 miles    
Events Fog , Rain    
T = Trace of Precipitation, MM = Missing Value Source: NWS Daily Summary

Daily Weather History Graph

Daily Weather History Graph

Search for Another Location

Airport:

Trip Planner

Search our weather history database for the weather conditions in past years. The results will help you decide how hot, cold, wet, or windy it might be!

Date:

Astronomy

Sep. 15, 2013 Rise Set
Actual Time 6:30 AM MDT 6:57 PM MDT
Civil Twilight 6:03 AM MDT 7:23 PM MDT
Nautical Twilight 5:32 AM MDT 7:55 PM MDT
Astronomical Twilight 4:59 AM MDT 8:27 PM MDT
Moon 4:25 PM MDT (9/15) 2:12 AM MDT (9/15)
Length of Visible Light 13h 20m
Length of Day
12h 26m
Waxing Gibbous, 82% of the Moon is Illuminated
Sep 15
Waxing Gibbous
Sep 19
Full
Sep 26
Last Quarter
Oct 4
New
Oct 11
First Quarter

Hourly Weather History & Observations

Time (MDT) Temp. Dew Point Humidity Pressure Visibility Wind Dir Wind Speed Gust Speed Precip Events Conditions
12:53 AM 63.0 °F 59.0 °F 87% 29.83 in 10.0 mi NW 4.6 mph - N/A   Mostly Cloudy
1:53 AM 63.0 °F 57.9 °F 84% 29.85 in 10.0 mi North 11.5 mph - N/A   Mostly Cloudy
2:53 AM 62.1 °F 57.0 °F 84% 29.86 in 10.0 mi North 11.5 mph - N/A   Overcast
3:53 AM 61.0 °F 57.0 °F 87% 29.85 in 10.0 mi North 12.7 mph - N/A   Overcast
4:53 AM 59.0 °F 55.9 °F 90% 29.87 in 10.0 mi NNW 6.9 mph - N/A   Clear
5:53 AM 59.0 °F 57.0 °F 93% 29.91 in 10.0 mi North 5.8 mph - N/A   Clear
6:18 AM 59.0 °F 57.2 °F 94% 30.05 in 10.0 mi North 10.4 mph - N/A   Scattered Clouds
6:29 AM 60.8 °F 57.2 °F 88% 30.06 in 10.0 mi North 10.4 mph - N/A   Mostly Cloudy
6:53 AM 61.0 °F 57.9 °F 90% 29.95 in 10.0 mi North 11.5 mph - N/A   Overcast
7:53 AM 61.0 °F 59.0 °F 93% 29.97 in 10.0 mi North 11.5 mph - N/A   Overcast
8:34 AM 60.8 °F 59.0 °F 94% 30.11 in 4.0 mi North 11.5 mph 18.4 mph N/A   Overcast
8:53 AM 62.1 °F 59.0 °F 90% 29.99 in 7.0 mi NNE 12.7 mph 20.7 mph N/A   Overcast
9:01 AM 62.6 °F 59.0 °F 88% 30.13 in 6.0 mi North 15.0 mph - N/A   Overcast
9:09 AM 60.8 °F 59.0 °F 94% 30.13 in 3.0 mi North 10.4 mph 18.4 mph N/A   Overcast
9:14 AM 60.8 °F 59.0 °F 94% 30.13 in 2.5 mi NNE 15.0 mph 20.7 mph N/A   Overcast
9:25 AM 60.8 °F 59.0 °F 94% 30.14 in 2.0 mi NNE 12.7 mph 19.6 mph N/A   Overcast
9:43 AM 60.8 °F 59.0 °F 94% 30.15 in 1.0 mi North 16.1 mph - N/A   Overcast
9:53 AM 61.0 °F 60.1 °F 97% 30.03 in 1.0 mi NNE 12.7 mph 19.6 mph N/A   Overcast
10:49 AM 60.8 °F 60.8 °F 100% 30.17 in 2.0 mi NE 12.7 mph - 0.00 in   Overcast
10:53 AM 61.0 °F 60.1 °F 97% 30.06 in 2.0 mi NE 13.8 mph - 0.00 in   Overcast
11:14 AM 62.6 °F 60.8 °F 94% 30.17 in 4.0 mi NE 13.8 mph - 0.00 in   Overcast
11:50 AM 60.8 °F 59.0 °F 94% 30.18 in 3.0 mi NE 15.0 mph - 0.01 in   Overcast
11:53 AM 61.0 °F 59.0 °F 93% 30.07 in 3.0 mi NE 15.0 mph - 0.01 in   Overcast
12:08 PM 60.8 °F 59.0 °F 94% 30.19 in 2.0 mi NE 15.0 mph - N/A   Overcast
12:36 PM 60.8 °F 57.2 °F 88% 30.19 in 3.0 mi NNE 12.7 mph - N/A   Overcast
12:53 PM 60.1 °F 57.9 °F 93% 30.09 in 3.0 mi NNE 13.8 mph - N/A   Overcast
1:01 PM 60.8 °F 57.2 °F 88% 30.20 in 2.5 mi NNE 16.1 mph - N/A   Overcast
1:14 PM 60.8 °F 57.2 °F 88% 30.20 in 3.0 mi NNE 12.7 mph 20.7 mph N/A   Overcast
1:53 PM 59.0 °F 57.0 °F 93% 30.11 in 5.0 mi NNE 11.5 mph - N/A   Overcast
2:13 PM 59.0 °F 57.2 °F 94% 30.21 in 4.0 mi NNE 12.7 mph - N/A   Overcast
2:53 PM 57.9 °F 57.0 °F 97% 30.12 in 1.8 mi NNE 16.1 mph - 0.00 in Rain Light Rain
3:02 PM 57.2 °F 57.2 °F 100% 30.21 in 2.5 mi NE 13.8 mph 20.7 mph 0.00 in Rain Light Rain
3:18 PM 57.2 °F 55.4 °F 94% 30.21 in 1.8 mi NNE 12.7 mph - 0.00 in Rain Light Rain
3:35 PM 57.2 °F 55.4 °F 94% 30.21 in 2.0 mi NE 15.0 mph 19.6 mph 0.00 in Rain Light Rain
3:48 PM 57.2 °F 55.4 °F 94% 30.22 in 3.0 mi NNE 17.3 mph - 0.00 in   Overcast
3:53 PM 57.0 °F 55.0 °F 93% 30.13 in 3.0 mi NE 16.1 mph - 0.00 in   Overcast
4:02 PM 55.4 °F 55.4 °F 100% 30.21 in 1.8 mi NNE 18.4 mph - N/A   Overcast
4:16 PM 55.4 °F 55.4 °F 100% 30.21 in 0.5 mi NE 15.0 mph - N/A Fog Fog
4:53 PM 55.0 °F 54.0 °F 96% 30.14 in 2.5 mi NE 13.8 mph - N/A   Overcast
5:00 PM 55.4 °F 53.6 °F 94% 30.23 in 7.0 mi NE 16.1 mph - N/A   Overcast
5:10 PM 55.4 °F 53.6 °F 94% 30.23 in 10.0 mi NE 12.7 mph - N/A   Overcast
5:17 PM 55.4 °F 53.6 °F 94% 30.23 in 9.0 mi NE 13.8 mph 20.7 mph N/A   Overcast
5:53 PM 55.0 °F 54.0 °F 96% 30.17 in 9.0 mi NE 12.7 mph - N/A   Overcast
6:34 PM 55.4 °F 53.6 °F 94% 30.26 in 4.0 mi NE 12.7 mph - N/A   Overcast
6:53 PM 55.0 °F 53.1 °F 93% 30.17 in 10.0 mi NE 12.7 mph - N/A   Overcast
7:53 PM 55.0 °F 53.1 °F 93% 30.19 in 9.0 mi NE 8.1 mph - N/A   Overcast
8:16 PM 55.4 °F 53.6 °F 94% 30.28 in 10.0 mi NE 10.4 mph - N/A   Overcast
8:53 PM 55.0 °F 53.1 °F 93% 30.20 in 10.0 mi NE 9.2 mph - N/A   Overcast
9:53 PM 55.0 °F 53.1 °F 93% 30.20 in 10.0 mi ENE 9.2 mph - N/A   Overcast
10:53 PM 55.9 °F 53.1 °F 90% 30.21 in 10.0 mi East 6.9 mph - N/A   Overcast
11:12 PM 55.4 °F 53.6 °F 94% 30.29 in 10.0 mi NE 5.8 mph - N/A   Overcast
11:38 PM 55.4 °F 53.6 °F 94% 30.29 in 10.0 mi NE 6.9 mph - N/A   Overcast
11:53 PM 55.9 °F 53.1 °F 90% 30.20 in 10.0 mi ENE 8.1 mph - N/A   Overcast